Вернуться в каталог

EZIE-C

АктивенНаукаSSO
NORAD 63249·PAYLOAD·🇺🇸 United States

Запущен Mar 15, 2025 с Vandenberg Space Force Base

Loading…

Ближайшие Пролёты (ближайшие 24 часа)

TLE

СвежийSource: Space-Track

Эпоха: Sep 14, 2026, 15:22 UTC

1 63249U 25052AR  26257.64077872  .00003545  00000-0  30635-3 0  9998
2 63249  97.6731 148.2120 0001203 281.9720  78.1368 14.97848505 82051

Отслеживайте EZIE-C в реальном времени с AllMySat

Download on the App Store